[[{"header":{"parameterUnit":"m.s-1","parameterCategory":1,"la1":30.2991,"la2":30.254,"lo1":-89.0895,"lo2":-89.0444,"dy":0.0017,"dx":0.0017,"nx":28,"ny":28,"refTime":"2025-01-12T03:00:00:Z","depth":0,"parameterNumber":2,"parameterNumberName":"U-component_of_WINDS"},"data":[0,0,0,0,0,0,0,0,0,0,0,0,0,0,0,0,0,0,0,0,0,0,0,0,0,0,0,0,0,0,0,0,0,0,0,0,0,0,0,0,0,0,0,0,0,0,0,0,0,0,0,0,0,0,0,0,0,0,-3.5814,-3.5815,0,-3.593,-3.5931,-3.5933,-3.5858,-3.5855,-3.5851,-3.5848,-3.5962,-3.5968,-3.5975,0,0,0,0,0,0,0,0,0,0,0,0,0,-3.5524,-3.5529,-3.5814,-3.5815,-3.5817,-3.593,-3.5931,-3.5933,-3.5859,-3.5855,-3.5851,-3.5847,-3.596,-3.5968,-3.5975,0,0,0,0,0,0,0,0,0,0,0,0,0,-3.5646,-3.5531,-3.5814,-3.5794,-3.5793,-3.593,-3.5931,-3.5933,-3.586,-3.5855,-3.585,-3.5845,-3.5958,-3.5967,-3.5976,-3.6138,0,0,-3.6005,-3.6009,0,0,0,0,0,0,0,0,-3.5639,-3.5656,-3.5795,-3.5795,-3.5795,-3.5875,-3.5871,-3.6002,-3.5861,-3.5834,-3.5848,-3.5842,-3.5937,-3.5948,-3.5981,-3.6143,-3.6148,-3.6006,-3.6011,-3.6015,-3.6018,0,0,0,0,0,0,0,-3.563,-3.5651,-3.586,-3.5797,-3.5797,-3.5777,-3.5789,-3.5895,-3.5913,-3.5836,-3.5831,-3.5846,-3.5936,-3.5972,-3.5983,-3.6149,-3.6005,-3.6014,-3.602,-3.6023,-3.6449,-3.6454,0,0,0,0,0,0,-3.5624,-3.5644,-3.5856,-3.5863,-3.5703,-3.5787,-3.58,-3.5854,-3.5912,-3.5916,-3.585,-3.5842,-3.5958,-3.5972,-3.5987,-3.6178,-3.6015,-3.6024,-3.603,-3.6443,-3.645,-3.6456,0,0,0,0,0,0,-3.5618,-3.5644,-3.5851,-3.5753,-3.5777,-3.5797,-3.5859,-3.5859,-3.5895,-3.5923,-3.5925,-3.5884,-3.5955,-3.5973,-3.6101,-3.6181,-3.6028,-3.6037,-3.6436,-3.6445,-3.6453,-3.6564,0,0,0,0,0,0,-3.561,-3.5642,-3.5705,-3.5755,-3.5783,-3.5965,-3.5864,-3.5865,-3.5912,-3.5902,-3.5955,-3.5959,-3.5952,-3.6087,-3.611,-3.6191,-3.6044,-3.6429,-3.644,-3.645,-3.6553,-3.6575,-3.6594,0,0,0,0,0,-3.56,-3.573,-3.5708,-3.5734,-3.5862,-3.597,-3.5986,-3.5977,-3.5919,-3.5981,-3.5999,-3.5957,-3.6169,-3.6101,-3.6126,-3.6211,-3.6424,-3.6437,-3.6449,-3.6543,-3.657,-3.6593,0,0,0,0,0,0,-3.5687,-3.5736,-3.5712,-3.5863,-3.5913,-3.5957,-3.6035,-3.6006,-3.6073,-3.6061,-3.6046,-3.6058,-3.6191,-3.6214,-3.6137,-3.637,-3.6287,-3.6305,-3.635,-3.6376,-3.6396,-3.6387,-3.6052,0,0,0,0,0,-3.5725,-3.581,-3.5847,-3.5976,-3.6003,-3.6015,-3.6062,-3.6051,-3.6102,-3.6122,-3.6149,-3.6198,-3.6276,-3.6327,-3.64,-3.6556,-3.6566,-3.6627,-3.6648,-3.6664,-3.668,-3.6763,-3.679,-3.6498,-3.6498,-3.6498,0,0,-3.5801,-3.5839,-3.5893,-3.5995,-3.6032,-3.6119,-3.6033,-3.6129,-3.6193,-3.6136,-3.6258,-3.628,-3.6334,-3.6476,-3.654,-3.6499,-3.6763,-3.6681,-3.6694,-3.67,-3.6779,-3.6806,-3.6831,-3.6507,-3.6505,-3.6504,0,0,-3.5985,-3.6023,-3.6134,-3.6174,-3.6233,-3.624,-3.6267,-3.6316,-3.6329,-3.6452,-3.6411,-3.6486,-3.662,-3.666,-3.6698,-3.6899,-3.6862,-3.6923,-3.7029,-3.711,-3.7133,-3.7153,-3.7223,-3.7249,-3.6939,-3.6939,-3.6939,0,-3.6072,-3.6204,-3.6195,-3.6294,-3.6339,-3.6294,-3.6406,-3.6444,-3.6523,-3.6555,-3.6509,-3.6677,-3.671,-3.686,-3.6909,-3.6942,-3.6971,-3.6916,-3.7131,-3.7151,-3.717,-3.7236,-3.7263,-3.6946,-3.6945,-3.6944,-3.6944,0,-3.6307,-3.6399,-3.6482,-3.6561,-3.6616,-3.6721,-3.6726,-3.6783,-3.6768,-3.6779,-3.6904,-3.6943,-3.7023,-3.7058,-3.7044,-3.7207,-3.7179,-3.7133,-3.7049,-3.7205,-3.7267,-3.7292,-3.6956,-3.6953,-3.6951,-3.6949,0,0,-3.6548,-3.6622,-3.6652,-3.6687,-3.6749,-3.6819,-3.6922,-3.7001,-3.7049,-3.7106,-3.719,-3.7306,-3.7263,-3.7306,-3.7296,-3.7367,-3.7522,-3.7311,-3.7312,-3.7348,-3.7702,-3.7735,-3.7765,-3.7499,-3.7504,-3.7508,-3.7697,0,-3.6734,-3.6915,-3.691,-3.7077,-3.7161,-3.7119,-3.7208,-3.7255,-3.727,-3.7341,-3.7356,-3.7438,-3.7376,-3.7402,-3.7471,-3.7489,-3.7593,-3.7475,-3.7575,-3.7579,-3.7561,-3.7798,-3.7833,-3.801,-3.7721,-3.7725,-3.7728,0,-3.6975,-3.7041,-3.7217,-3.7267,-3.7302,-3.7382,-3.7455,-3.7525,-3.7577,-3.7582,-3.7631,-3.761,-3.7712,-3.7627,-3.7767,-3.7688,-3.7728,-3.7743,-3.775,-3.7757,-3.7662,-3.7809,-3.8066,-3.8092,-3.7767,-3.7764,-3.7761,0,-3.7131,-3.7264,-3.7386,-3.7418,-3.7479,-3.7536,-3.7564,-3.7611,-3.766,-3.7723,-3.7753,-3.7828,-3.7867,-3.7925,-3.7923,-3.7862,-3.8065,-3.798,-3.807,-3.807,-3.8112,-3.8109,-3.8377,-3.8143,-3.8142,-3.8142,-3.8141,0,-3.7338,-3.7447,-3.7457,-3.7532,-3.7652,-3.7646,-3.7764,-3.7786,-3.7829,-3.7906,-3.7875,-3.7948,-3.7943,-3.8017,-3.8016,-3.8131,-3.815,-3.8156,-3.8154,-3.8157,-3.8156,-3.8182,-3.8169,-3.8149,-3.8147,-3.8146,-3.8145,0,-3.7531,-3.7542,-3.7673,-3.7721,-3.7736,-3.7822,-3.7862,-3.7933,-3.7945,-3.8043,-3.8066,-3.8084,-3.8169,-3.8175,-3.8272,-3.8272,-3.8411,-3.8397,-3.8394,-3.839,-3.8479,-3.847,-3.8771,-3.881,-3.8553,-3.8555,-3.8557,0,-3.7661,-3.7744,-3.7802,-3.7853,-3.7884,-3.7966,-3.8016,-3.8012,-3.8065,-3.8131,-3.8193,-3.8276,-3.8341,-3.8478,-3.8499,-3.8574,-3.8559,-3.866,-3.857,-3.8571,-3.8559,-3.8553,-3.856,-3.8677,-3.8679,-3.8682,-3.8684,0,-3.7891,-3.7893,-3.7966,-3.8043,-3.8103,-3.8162,-3.8217,-3.826,-3.8263,-3.8323,-3.8411,-3.8462,-3.8562,-3.8644,-3.8717,-3.8743,-3.8714,-3.8712,-3.8737,-3.874,-3.8734,-3.8736,-3.8439,-3.8705,-3.8703,-3.8701,-3.87,-3.8699,-3.8055,-3.8127,-3.8179,-3.8262,-3.8303,-3.8356,-3.8424,-3.8446,-3.8519,-3.8602,-3.8595,-3.8692,-3.8741,-3.8836,-3.8869,-3.8943,-3.8908,-3.8944,-3.8953,-3.8961,-3.897,-3.8725,-3.8957,-3.8956,-3.8955,-3.8955,-3.8954,0,-3.8282,-3.8314,-3.839,-3.8469,-3.8534,-3.8503,-3.8563,-3.8618,-3.8704,-3.8754,-3.8819,-3.8919,-3.8998,-3.9027,-3.9103,-3.9157,-3.9145,-3.9177,-3.9172,-3.9178,-3.8997,-3.8968,-3.9185,-3.9185,-3.9185,-3.9185,-3.9185,-3.9185,-3.8407,-3.8526,-3.8535,-3.8674,-3.8704,-3.88,-3.8836,-3.8884,-3.8923,-3.9037,-3.9103,-3.9121,-3.9162,-3.9242,-3.9312,-3.9318,-3.9347,-3.9384,-3.9384,-3.9214,-3.9191,-3.9169,-3.914,-3.9391,-3.9391,-3.9558,-3.956,-3.9561]},{"header":{"parameterUnit":"m.s-1","parameterCategory":1,"la1":30.2991,"la2":30.254,"lo1":-89.0895,"lo2":-89.0444,"dy":0.0017,"dx":0.0017,"nx":28,"ny":28,"refTime":"2025-01-12T03:00:00:Z","depth":0,"parameterNumber":3,"parameterNumberName":"V-component_of_WINDS"},"data":[0,0,0,0,0,0,0,0,0,0,0,0,0,0,0,0,0,0,0,0,0,0,0,0,0,0,0,0,0,0,0,0,0,0,0,0,0,0,0,0,0,0,0,0,0,0,0,0,0,0,0,0,0,0,0,0,0,0,0.1903,0.1901,0,0.1802,0.1801,0.18,0.1675,0.1673,0.1671,0.1669,0.1565,0.1564,0.1563,0,0,0,0,0,0,0,0,0,0,0,0,0,0.1985,0.1984,0.1903,0.1901,0.19,0.1803,0.1801,0.18,0.1675,0.1673,0.167,0.1668,0.1566,0.1564,0.1563,0,0,0,0,0,0,0,0,0,0,0,0,0,0.1923,0.1984,0.1903,0.1826,0.1818,0.1803,0.1801,0.1799,0.1676,0.1673,0.167,0.1667,0.1566,0.1565,0.1563,0.1615,0,0,0.1559,0.1558,0,0,0,0,0,0,0,0,0.1927,0.1921,0.1839,0.1831,0.1823,0.1748,0.1792,0.1737,0.1676,0.173,0.1669,0.1665,0.1628,0.1622,0.1609,0.161,0.1605,0.1559,0.1558,0.1558,0.1557,0,0,0,0,0,0,0,0.1931,0.1924,0.1863,0.1838,0.1828,0.1796,0.1784,0.1781,0.1697,0.1725,0.1716,0.1706,0.1623,0.1611,0.1606,0.1604,0.1559,0.1558,0.1557,0.1556,0.1641,0.1644,0,0,0,0,0,0,0.1947,0.1929,0.1866,0.186,0.1869,0.1797,0.1784,0.1775,0.1697,0.1682,0.1708,0.17,0.1615,0.1608,0.1602,0.1657,0.1558,0.1556,0.1556,0.1638,0.1642,0.1645,0,0,0,0,0,0,0.195,0.1943,0.187,0.1892,0.188,0.1799,0.179,0.1775,0.1762,0.1684,0.1668,0.1711,0.1612,0.1604,0.1613,0.1652,0.1556,0.1554,0.1635,0.164,0.1644,0.1769,0,0,0,0,0,0,0.1953,0.1945,0.1964,0.1893,0.1879,0.1883,0.1793,0.1775,0.176,0.1749,0.1683,0.1669,0.1609,0.1615,0.1611,0.1648,0.1553,0.1631,0.1637,0.1642,0.1761,0.1777,0.1791,0,0,0,0,0,0.1956,0.2002,0.1965,0.1958,0.1901,0.1886,0.1878,0.1809,0.1764,0.1782,0.1732,0.1671,0.1648,0.1617,0.1612,0.1649,0.1628,0.1635,0.1642,0.1754,0.1774,0.1791,0,0,0,0,0,0,0.2079,0.1992,0.195,0.1975,0.1939,0.1865,0.1886,0.1832,0.1807,0.1798,0.1712,0.1698,0.1718,0.1684,0.1651,0.1695,0.1629,0.1635,0.1716,0.1735,0.175,0.1758,0.1552,0,0,0,0,0,0.211,0.2105,0.2028,0.2058,0.2042,0.1967,0.1958,0.1908,0.1867,0.1851,0.1801,0.1763,0.1747,0.1739,0.172,0.1755,0.1739,0.1778,0.1793,0.1806,0.1813,0.1829,0.1846,0.1668,0.1668,0.1668,0,0,0.2172,0.2123,0.2125,0.2081,0.2047,0.2044,0.1955,0.1955,0.1952,0.185,0.1856,0.1818,0.177,0.1793,0.18,0.1765,0.1858,0.1815,0.1826,0.1825,0.1838,0.1855,0.187,0.1673,0.1672,0.1671,0,0,0.2284,0.2246,0.2267,0.2235,0.2185,0.2135,0.2141,0.2075,0.2046,0.205,0.1975,0.1969,0.1944,0.1913,0.1894,0.1995,0.1938,0.1991,0.207,0.2087,0.2101,0.2113,0.215,0.2164,0.1997,0.1998,0.1998,0,0.2367,0.2359,0.2285,0.229,0.2273,0.2181,0.2202,0.2174,0.2121,0.2111,0.2072,0.2039,0.2,0.2015,0.2039,0.2027,0.203,0.1998,0.2105,0.2117,0.2127,0.2161,0.2175,0.2005,0.2004,0.2003,0.2002,0,0.2465,0.2461,0.2483,0.2435,0.242,0.2433,0.236,0.2354,0.2305,0.226,0.2265,0.2216,0.2185,0.2185,0.2137,0.2192,0.2172,0.2121,0.2053,0.2152,0.2182,0.2195,0.2014,0.2012,0.201,0.2008,0,0,0.2652,0.2562,0.2572,0.2549,0.2487,0.2482,0.2491,0.2462,0.2459,0.2425,0.243,0.2411,0.2363,0.2342,0.2289,0.2304,0.2388,0.2251,0.2248,0.2279,0.2447,0.2487,0.2503,0.235,0.2352,0.2354,0.2451,0,0.2753,0.2763,0.2696,0.2724,0.2719,0.2633,0.264,0.2603,0.2561,0.255,0.2502,0.2491,0.2428,0.2415,0.2426,0.2376,0.2421,0.2368,0.2354,0.2354,0.237,0.2519,0.256,0.2655,0.2463,0.2465,0.2466,0,0.2872,0.2846,0.2874,0.2811,0.2806,0.2815,0.2783,0.2774,0.273,0.2698,0.2675,0.2615,0.2618,0.2554,0.2558,0.2523,0.2513,0.2488,0.249,0.2487,0.2417,0.252,0.2683,0.2698,0.2484,0.2482,0.2481,0,0.3007,0.2978,0.2991,0.2974,0.2901,0.2909,0.2879,0.2832,0.2819,0.2791,0.2782,0.2755,0.274,0.272,0.2654,0.2613,0.2666,0.2596,0.264,0.2642,0.2655,0.2656,0.2821,0.2649,0.2648,0.2648,0.2648,0,0.3127,0.3148,0.3051,0.3059,0.308,0.3002,0.3025,0.2986,0.2945,0.2944,0.2867,0.2867,0.278,0.2771,0.2719,0.2731,0.2724,0.2699,0.2685,0.2706,0.271,0.2699,0.2691,0.2652,0.2651,0.265,0.265,0,0.3281,0.3217,0.3226,0.3156,0.3139,0.3158,0.3098,0.3102,0.3055,0.3055,0.305,0.2976,0.2961,0.2893,0.2862,0.2827,0.2857,0.2829,0.2872,0.2863,0.2911,0.2908,0.3076,0.3094,0.291,0.2912,0.2914,0,0.3363,0.3377,0.3309,0.3303,0.3277,0.3268,0.3254,0.3179,0.3168,0.3119,0.313,0.3109,0.3088,0.3068,0.3012,0.2987,0.2959,0.3019,0.2955,0.2976,0.2961,0.2961,0.2962,0.3033,0.3036,0.3038,0.3039,0,0.3514,0.3482,0.3466,0.3439,0.3425,0.34,0.337,0.337,0.3285,0.3277,0.3261,0.3246,0.3214,0.3195,0.3161,0.3129,0.3071,0.306,0.3069,0.3091,0.3116,0.3104,0.2911,0.3057,0.3055,0.3054,0.3053,0.3052,0.3635,0.3643,0.3597,0.3582,0.3552,0.3526,0.3527,0.348,0.3466,0.3435,0.3391,0.3381,0.3336,0.3286,0.3259,0.325,0.3216,0.3229,0.3233,0.3237,0.3248,0.3117,0.3243,0.3243,0.3242,0.3241,0.3241,0,0.3783,0.3749,0.3735,0.3697,0.3685,0.3631,0.3595,0.3589,0.3582,0.3545,0.3527,0.3509,0.349,0.3431,0.3406,0.341,0.3383,0.3406,0.3405,0.3399,0.3279,0.3274,0.3429,0.3429,0.3429,0.3429,0.3429,0.3429,0.3858,0.387,0.3833,0.3829,0.3794,0.3785,0.3769,0.3745,0.3716,0.37,0.3683,0.3646,0.36,0.3571,0.3551,0.3534,0.3529,0.3562,0.3536,0.3425,0.3408,0.339,0.3385,0.3561,0.3561,0.3657,0.3658,0.3659]}]]